Home   Weather   Papeete   Past weeks

Flag for French Polynesia Past Weather in Papeete, Tahiti, French Polynesia — Yesterday and Last 2 Weeks

Now
77 °F

Passing clouds.


Feels Like: 79 °F
Forecast: 74 / 87 °F
Wind: 3 mph from East

Location: Tahiti-Faaa

Current Time: Apr 26, 2017 at 6:05:49 am

Latest Report: Apr 26, 2017 at 5:30 am


Visibility: N/A

Pressure: 29.95 "Hg

Humidity: 79%

Dew Point: 70 °F

Location of PapeeteLocation

Past Weather in Papeete — Graph

°F

Papeete Temperature Yesterday

Maximum temperature yesterday: 90 °F (at 4:00 pm)
Minimum temperature yesterday: 77 °F (at 2:00 am)
Average temperature yesterday: 82 °F

High & Low Weather Summary for the Past Weeks

 TemperatureHumidityPressure
High90 °F (Apr 13, 12:00 pm)100% (Apr 22, 7:00 am)29.98 "Hg (Apr 22, 7:00 am)
Low75 °F (Apr 17, 4:00 am)52% (Apr 21, 4:00 pm)29.68 "Hg (Apr 15, 2:00 pm)
Average82 °F75%29.85 "Hg
* Reported Apr 11 5:00 am — Apr 26 5:00 am, Papeete, Weather by CustomWeather, © 2017

Note: Actual official high and low records may vary slightly from our data, if they occured in-between our weather recording intervals... More about our weather records

Advertising

Papeete Weather History for the Previous 24 Hours

Scroll right to see more
 ConditionsComfort  
Time TempWeatherWind HumidityBarometerVisibility
5:00 am
Wed, Apr 26
77 °FWarm.2 mph79%29.95 "HgN/A
4:30 am77 °FWarm.2 mph79%29.95 "HgN/A
4:00 am77 °FPassing clouds.5 mph83%29.95 "HgN/A
3:30 am77 °FPartly cloudy.5 mph83%29.95 "HgN/A
3:00 am77 °FPassing clouds.2 mph83%29.95 "HgN/A
2:00 am77 °FPassing clouds.2 mph83%29.95 "HgN/A
1:30 am77 °FPassing clouds.5 mph83%29.95 "HgN/A
1:00 am79 °FPassing clouds.3 mph79%29.95 "HgN/A
12:30 am79 °FPassing clouds.2 mph79%29.98 "HgN/A
12:00 am79 °FPassing clouds.2 mph79%29.98 "HgN/A
11:30 pm
Tue, Apr 25
79 °FPassing clouds.5 mph79%29.98 "HgN/A
11:00 pm79 °FPassing clouds.3 mph79%29.98 "HgN/A
10:00 pm81 °FPassing clouds.6 mph74%29.98 "HgN/A
9:30 pm81 °FPassing clouds.3 mph74%29.98 "HgN/A
9:00 pm81 °FPassing clouds.3 mph74%29.98 "HgN/A
8:30 pm81 °FPassing clouds.3 mph74%29.98 "HgN/A
8:00 pm81 °FPassing clouds.3 mph74%29.98 "HgN/A
7:30 pm82 °FPassing clouds.3 mph74%29.95 "HgN/A
7:06 pm82 °FPassing clouds.5 mph74%29.95 "HgN/A
6:30 pm84 °FPassing clouds.2 mph66%29.95 "HgN/A
6:00 pm84 °FPassing clouds.6 mph62%29.95 "HgN/A
5:30 pm86 °FPassing clouds.7 mph62%29.92 "HgN/A
5:00 pm88 °FPassing clouds.2 mph62%29.92 "HgN/A
4:30 pm88 °FPassing clouds.6 mph59%29.92 "HgN/A
4:00 pm90 °FPassing clouds.6 mph59%29.89 "HgN/A
3:30 pm88 °FScattered clouds.8 mph59%29.89 "HgN/A
3:00 pm88 °FScattered clouds.7 mph59%29.89 "HgN/A
2:30 pm88 °FScattered clouds.5 mph59%29.92 "HgN/A
2:00 pm88 °FScattered clouds.8 mph59%29.92 "HgN/A
1:30 pm86 °FScattered clouds.9 mph62%29.92 "HgN/A
1:00 pm88 °FScattered clouds.9 mph59%29.92 "HgN/A
12:30 pm88 °FPassing clouds.8 mph62%29.92 "HgN/A
12:00 pm86 °FScattered clouds.9 mph62%29.95 "HgN/A
11:30 am86 °FScattered clouds.9 mph66%29.95 "HgN/A
11:00 am86 °FScattered clouds.9 mph70%29.95 "HgN/A
10:30 am84 °FPassing clouds.12 mph70%29.98 "HgN/A
10:00 am86 °FPassing clouds.7 mph66%29.98 "HgN/A
9:30 am84 °FPassing clouds.2 mph74%29.98 "HgN/A
9:00 am84 °FPassing clouds.5 mph74%29.98 "HgN/A
8:30 am84 °FPassing clouds.2 mph70%29.98 "HgN/A
8:00 am82 °FPassing clouds.5 mph70%29.98 "HgN/A
7:30 am81 °FScattered clouds.1 mph79%29.98 "HgN/A
7:00 am79 °FScattered clouds.No wind79%29.95 "HgN/A
6:30 am79 °FScattered clouds.3 mph79%29.95 "HgN/A
6:00 am77 °FPassing clouds.2 mph83%29.95 "HgN/A
Weather by CustomWeather, © 2017

See weather overviewHow to use our weather pages